CGCOT CYAV-CYWG

Flight info

Callsign CGCOT
Flight time 0h 41m
Altitude 2000
Route YWG
Aircraft S22T/L-SDGRY/S

Departure

Time 2026-04-25 01:11
Airport Winnipeg / St. Andrews Airport (CYAV)

Arrival

Time 2026-04-25 01:53
Airport Winnipeg / James Armstrong Richardson International Airport (CYWG)
Time Latitude Longitude Altitude Speed Heading
2026-04-25 00:52 50.05846 -97.04195 758 ft 0 kts 302°
2026-04-25 01:08 50.05847 -97.04198 756 ft 0 kts 301°
2026-04-25 01:08 50.05844 -97.04214 756 ft 4 kts 215°
2026-04-25 01:09 50.05825 -97.04160 755 ft 10 kts 105°
2026-04-25 01:09 50.05808 -97.04031 759 ft 15 kts 54°
2026-04-25 01:09 50.05923 -97.04002 758 ft 18 kts
2026-04-25 01:09 50.06038 -97.03954 759 ft 17 kts 56°
2026-04-25 01:10 50.06109 -97.03791 759 ft 9 kts 55°
2026-04-25 01:10 50.06086 -97.03733 758 ft 5 kts 185°
2026-04-25 01:10 50.06085 -97.03733 758 ft 0 kts 185°
2026-04-25 01:11 50.05856 -97.03781 757 ft 65 kts 186°
2026-04-25 01:11 50.05286 -97.03887 812 ft 95 kts 185°
2026-04-25 01:11 50.04622 -97.03885 1124 ft 91 kts 185°
2026-04-25 01:11 50.03985 -97.03873 1462 ft 92 kts 182°
2026-04-25 01:12 50.03347 -97.03824 1795 ft 92 kts 182°
2026-04-25 01:12 50.02685 -97.03813 2002 ft 105 kts 199°
2026-04-25 01:12 50.02133 -97.04653 2027 ft 120 kts 236°
2026-04-25 01:12 50.01659 -97.05798 2023 ft 131 kts 239°
2026-04-25 01:13 50.01255 -97.07113 2023 ft 137 kts 241°
2026-04-25 01:13 50.00847 -97.08455 2022 ft 138 kts 244°
2026-04-25 01:13 50.00566 -97.09898 2023 ft 141 kts 250°
2026-04-25 01:13 50.00266 -97.11361 2023 ft 143 kts 250°
2026-04-25 01:14 49.99968 -97.12833 2020 ft 143 kts 249°
2026-04-25 01:14 49.99470 -97.14114 2020 ft 140 kts 223°
2026-04-25 01:14 49.98730 -97.15113 2021 ft 141 kts 220°
2026-04-25 01:14 49.97998 -97.16129 2019 ft 142 kts 221°
2026-04-25 01:15 49.97267 -97.17150 2020 ft 141 kts 223°
2026-04-25 01:15 49.96531 -97.18167 2018 ft 142 kts 222°
2026-04-25 01:15 49.95789 -97.19199 2014 ft 143 kts 229°
2026-04-25 01:15 49.95346 -97.20577 2009 ft 143 kts 247°
2026-04-25 01:16 49.95037 -97.22052 1957 ft 144 kts 255°
2026-04-25 01:16 49.94524 -97.23288 1695 ft 140 kts 209°
2026-04-25 01:16 49.93560 -97.23272 1431 ft 137 kts 175°
2026-04-25 01:16 49.92623 -97.23434 953 ft 140 kts 197°
2026-04-25 01:17 49.91680 -97.23656 1104 ft 130 kts 190°
2026-04-25 01:17 49.91095 -97.23726 1372 ft 124 kts 186°
2026-04-25 01:17 49.89908 -97.23760 1760 ft 129 kts 182°
2026-04-25 01:17 49.89032 -97.23705 2044 ft 132 kts 184°
2026-04-25 01:18 49.88047 -97.23837 2009 ft 148 kts 196°
2026-04-25 01:18 49.87249 -97.24819 1998 ft 155 kts 241°
2026-04-25 01:18 49.87084 -97.26413 2006 ft 146 kts 264°
2026-04-25 01:18 49.87025 -97.27945 2016 ft 139 kts 263°
2026-04-25 01:19 49.87160 -97.29398 1997 ft 142 kts 295°
2026-04-25 01:19 49.87988 -97.30225 1989 ft 152 kts 346°
2026-04-25 01:19 49.89024 -97.29989 2001 ft 153 kts
2026-04-25 01:19 49.90070 -97.29633 1991 ft 151 kts
2026-04-25 01:20 49.91079 -97.29297 2002 ft 150 kts
2026-04-25 01:20 49.92096 -97.28954 2001 ft 149 kts
2026-04-25 01:20 49.93112 -97.28609 2008 ft 149 kts
2026-04-25 01:20 49.94124 -97.28282 2008 ft 148 kts
2026-04-25 01:21 49.95134 -97.27962 2008 ft 148 kts 10°
2026-04-25 01:21 49.95966 -97.27090 2006 ft 149 kts 60°
2026-04-25 01:21 49.96134 -97.25571 2010 ft 141 kts 94°
2026-04-25 01:21 49.96139 -97.24118 1996 ft 125 kts 94°
2026-04-25 01:22 49.95946 -97.22895 1858 ft 111 kts 130°
2026-04-25 01:22 49.95378 -97.22317 1733 ft 98 kts 181°
2026-04-25 01:22 49.94640 -97.22379 1436 ft 108 kts 194°
2026-04-25 01:22 49.93957 -97.22772 1286 ft 102 kts 205°
2026-04-25 01:23 49.93299 -97.23110 1171 ft 93 kts 200°
2026-04-25 01:23 49.92689 -97.23416 923 ft 92 kts 197°
2026-04-25 01:23 49.92082 -97.23580 777 ft 83 kts 193°
2026-04-25 01:23 49.91522 -97.23768 800 ft 94 kts 194°
2026-04-25 01:24 49.90853 -97.23833 1048 ft 97 kts 187°
2026-04-25 01:24 49.90155 -97.23861 1313 ft 105 kts 182°
2026-04-25 01:24 49.89427 -97.23793 1732 ft 105 kts 180°
2026-04-25 01:24 49.88683 -97.23677 2057 ft 115 kts 179°
2026-04-25 01:25 49.87847 -97.23750 2017 ft 123 kts 194°
2026-04-25 01:25 49.87215 -97.24574 2007 ft 127 kts 248°
2026-04-25 01:25 49.87139 -97.25482 2009 ft 130 kts 264°
2026-04-25 01:25 49.87088 -97.26881 2009 ft 131 kts 262°
2026-04-25 01:26 49.87126 -97.28288 2001 ft 135 kts 286°
2026-04-25 01:26 49.87841 -97.29264 1990 ft 150 kts 338°
2026-04-25 01:26 49.88903 -97.29124 1995 ft 157 kts
2026-04-25 01:26 49.89967 -97.28766 2001 ft 156 kts
2026-04-25 01:27 49.91030 -97.28415 2002 ft 157 kts
2026-04-25 01:27 49.92097 -97.28062 1997 ft 157 kts
2026-04-25 01:27 49.92610 -97.27901 2009 ft 157 kts
2026-04-25 01:28 49.93578 -97.27602 2008 ft 157 kts
2026-04-25 01:28 49.94647 -97.27283 2009 ft 156 kts
2026-04-25 01:28 49.95710 -97.26963 2009 ft 155 kts
2026-04-25 01:28 49.96688 -97.26301 1984 ft 157 kts 45°
2026-04-25 01:29 49.97064 -97.24779 2004 ft 152 kts 93°
2026-04-25 01:29 49.96896 -97.23261 1861 ft 137 kts 122°
2026-04-25 01:29 49.96198 -97.22489 1621 ft 120 kts 182°
2026-04-25 01:29 49.95395 -97.22700 1447 ft 113 kts 197°
2026-04-25 01:30 49.94652 -97.22966 1311 ft 107 kts 191°
2026-04-25 01:30 49.93903 -97.23161 1129 ft 107 kts 192°
2026-04-25 01:30 49.93222 -97.23302 978 ft 95 kts 188°
2026-04-25 01:30 49.92625 -97.23459 883 ft 80 kts 193°
2026-04-25 01:31 49.92095 -97.23588 776 ft 70 kts 194°
2026-04-25 01:31 49.91613 -97.23749 792 ft 87 kts 198°
2026-04-25 01:31 49.90935 -97.23895 987 ft 109 kts 187°
2026-04-25 01:31 49.90167 -97.23957 1336 ft 111 kts 186°
2026-04-25 01:32 49.89406 -97.24017 1763 ft 109 kts 186°
2026-04-25 01:32 49.88643 -97.24047 2132 ft 114 kts 181°
2026-04-25 01:32 49.87741 -97.24153 2013 ft 143 kts 200°
2026-04-25 01:32 49.87013 -97.25214 2008 ft 153 kts 245°
2026-04-25 01:33 49.86949 -97.26869 2013 ft 161 kts 273°
2026-04-25 01:33 49.87073 -97.28598 2010 ft 158 kts 273°
2026-04-25 01:33 49.87239 -97.30216 2001 ft 149 kts 285°
2026-04-25 01:33 49.87965 -97.31340 1991 ft 156 kts 332°
2026-04-25 01:34 49.89055 -97.31334 1994 ft 161 kts
2026-04-25 01:34 49.90140 -97.30954 1992 ft 159 kts
2026-04-25 01:34 49.91213 -97.30600 1993 ft 157 kts
2026-04-25 01:34 49.92283 -97.30246 1998 ft 157 kts
2026-04-25 01:35 49.93350 -97.29887 2000 ft 157 kts
2026-04-25 01:35 49.94414 -97.29533 2008 ft 157 kts
2026-04-25 01:35 49.95481 -97.29171 2003 ft 157 kts
2026-04-25 01:35 49.96537 -97.28815 2009 ft 155 kts
2026-04-25 01:36 49.97575 -97.28405 2002 ft 156 kts 26°
2026-04-25 01:36 49.98207 -97.27109 2008 ft 153 kts 80°
2026-04-25 01:36 49.98246 -97.25474 2010 ft 151 kts 93°
2026-04-25 01:36 49.98252 -97.23862 1989 ft 146 kts 99°
2026-04-25 01:37 49.97865 -97.22520 1930 ft 133 kts 141°
2026-04-25 01:37 49.97063 -97.22076 1805 ft 124 kts 191°
2026-04-25 01:37 49.96229 -97.22408 1746 ft 123 kts 197°
2026-04-25 01:37 49.95375 -97.22706 1943 ft 127 kts 193°
2026-04-25 01:38 49.94464 -97.22896 2024 ft 136 kts 188°
2026-04-25 01:38 49.93522 -97.23002 2023 ft 136 kts 187°
2026-04-25 01:38 49.92577 -97.23115 2024 ft 136 kts 187°
2026-04-25 01:38 49.91633 -97.23222 2007 ft 136 kts 187°
2026-04-25 01:39 49.90678 -97.23331 2010 ft 141 kts 187°
2026-04-25 01:39 49.89678 -97.23448 2010 ft 146 kts 187°
2026-04-25 01:39 49.88653 -97.23580 2011 ft 149 kts 188°
2026-04-25 01:39 49.87733 -97.24222 1992 ft 149 kts 228°
2026-04-25 01:40 49.87419 -97.25737 1992 ft 154 kts 266°
2026-04-25 01:40 49.87675 -97.27352 2008 ft 159 kts 295°
2026-04-25 01:40 49.88519 -97.28495 1997 ft 169 kts 330°
2026-04-25 01:40 49.89697 -97.28780 1996 ft 173 kts 352°
2026-04-25 01:41 49.90895 -97.28914 1998 ft 172 kts 349°
2026-04-25 01:41 49.92081 -97.29126 2030 ft 170 kts 347°
2026-04-25 01:41 49.93234 -97.29339 2167 ft 164 kts 347°
2026-04-25 01:41 49.94358 -97.29549 2295 ft 162 kts 347°
2026-04-25 01:42 49.95472 -97.29754 2422 ft 160 kts 347°
2026-04-25 01:42 49.96569 -97.29958 2550 ft 158 kts 347°
2026-04-25 01:42 49.97669 -97.30163 2684 ft 161 kts 347°
2026-04-25 01:42 49.98795 -97.30376 2868 ft 164 kts 348°
2026-04-25 01:43 49.99942 -97.30587 3010 ft 169 kts 347°
2026-04-25 01:43 50.01134 -97.30802 3006 ft 173 kts 348°
2026-04-25 01:43 50.02307 -97.31008 3008 ft 171 kts 348°
2026-04-25 01:43 50.03483 -97.31230 3003 ft 169 kts 343°
2026-04-25 01:44 50.04653 -97.31483 3011 ft 171 kts 350°
2026-04-25 01:44 50.05835 -97.31654 3009 ft 170 kts 349°
2026-04-25 01:44 50.07009 -97.31834 3007 ft 170 kts 356°
2026-04-25 01:44 50.08158 -97.31375 3004 ft 173 kts 25°
2026-04-25 01:45 50.09085 -97.30203 3005 ft 173 kts 52°
2026-04-25 01:45 50.09608 -97.28550 3006 ft 170 kts 79°
2026-04-25 01:45 50.09649 -97.26754 3008 ft 164 kts 103°
2026-04-25 01:45 50.09469 -97.24995 3010 ft 165 kts 103°
2026-04-25 01:46 50.09287 -97.23235 3005 ft 164 kts 109°
2026-04-25 01:46 50.08758 -97.21718 3003 ft 158 kts 135°
2026-04-25 01:46 50.07921 -97.20685 3005 ft 152 kts 158°
2026-04-25 01:46 50.06927 -97.20242 3004 ft 147 kts 179°
2026-04-25 01:47 50.05926 -97.20368 3012 ft 144 kts 192°
2026-04-25 01:47 50.04941 -97.20601 3011 ft 143 kts 190°
2026-04-25 01:47 50.03959 -97.20824 3012 ft 142 kts 191°
2026-04-25 01:47 50.02980 -97.21049 2958 ft 144 kts 191°
2026-04-25 01:48 50.01977 -97.21289 2774 ft 147 kts 191°
2026-04-25 01:48 50.00971 -97.21526 2579 ft 146 kts 191°
2026-04-25 01:48 49.99964 -97.21762 2379 ft 146 kts 191°
2026-04-25 01:48 49.98953 -97.21997 2172 ft 148 kts 191°
2026-04-25 01:49 49.97934 -97.22232 1967 ft 148 kts 191°
2026-04-25 01:49 49.96911 -97.22470 1751 ft 149 kts 191°
2026-04-25 01:49 49.95880 -97.22709 1523 ft 150 kts 191°
2026-04-25 01:49 49.94838 -97.22953 1306 ft 152 kts 191°
2026-04-25 01:50 49.93817 -97.23189 1289 ft 141 kts 189°
2026-04-25 01:50 49.92929 -97.23386 1583 ft 117 kts 191°
2026-04-25 01:50 49.92185 -97.23566 1820 ft 103 kts 193°
2026-04-25 01:50 49.91481 -97.23762 1910 ft 103 kts 193°
2026-04-25 01:51 49.90775 -97.23959 2001 ft 103 kts 194°
2026-04-25 01:51 49.90083 -97.24151 2096 ft 102 kts 194°
2026-04-25 01:51 49.89383 -97.24345 2184 ft 102 kts 194°
2026-04-25 01:51 49.88713 -97.24207 1999 ft 119 kts 134°
2026-04-25 01:52 49.88894 -97.23009 1626 ft 140 kts 26°
2026-04-25 01:52 49.89749 -97.23163 1177 ft 114 kts 312°
2026-04-25 01:52 49.90316 -97.23837 902 ft 101 kts 333°
2026-04-25 01:52 49.90967 -97.23855 785 ft 84 kts
2026-04-25 01:53 49.91374 -97.23785 774 ft 30 kts 17°
2026-04-25 01:53 49.91505 -97.23586 777 ft 29 kts 37°